Location: Unspecified
(40.8819°N, 0.0000°E)
Time: 12:26:46
(UTC+00:00)

UKube-1 - Visible Passes

Search period start: 20 July 2025 00:00
Search period end: 30 July 2025 00:00
Orbit: 547 x 550 km, 98.4° (Epoch: 20 July)

Date Brightness Start Highest point End Pass type
(mag) Time Alt. Az. Time Alt. Az. Time Alt. Az.
20 Jul ? 03:02:49 10° NE 03:06:19 30° E 03:09:48 10° SSE visible
21 Jul ? 02:58:11 10° NE 03:01:32 26° E 03:04:52 10° SSE visible
22 Jul ? 02:53:34 10° NE 02:56:44 23° E 02:59:53 10° SSE visible
23 Jul ? 02:48:57 10° NE 02:51:54 20° E 02:54:51 10° SE visible
24 Jul ? 02:44:23 10° NE 02:47:04 18° E 02:49:45 10° SE visible
25 Jul ? 02:39:51 10° NE 02:42:13 15° E 02:44:34 10° SE visible
25 Jul ? 04:13:18 10° N 04:16:58 38° WNW 04:20:37 10° SW visible
26 Jul ? 02:35:24 10° ENE 02:37:21 13° E 02:39:18 10° ESE visible
26 Jul ? 04:08:25 10° N 04:12:10 43° WNW 04:15:54 10° SW visible
27 Jul ? 02:31:06 10° ENE 02:32:28 11° E 02:33:50 10° ESE visible
27 Jul ? 04:03:32 10° N 04:07:21 50° WNW 04:11:10 10° SSW visible
28 Jul ? 03:58:38 10° N 04:02:32 59° WNW 04:06:23 10° SSW visible
29 Jul ? 03:53:45 10° N 03:57:41 69° WNW 04:01:35 10° SSW visible
